Regional Weather Roundup
Issued by NWS Raleigh/Durham, NC

Home | Current Version | Previous Version | Text Only | Print | Product List | Glossary On
Versions: 1 2 3 4 5 6 7 8 9 10 11 12 13 14 15 16 17 18 19 20 21 22 23 24 25 26 27 28
000
ASUS42 KRAH 271510
RWRRAH
NORTH CAROLINA WEATHER ROUNDUP
NATIONAL WEATHER SERVICE RALEIGH NC
1100 AM EDT THU APR 27 2017

NOTE: "FAIR" INDICATES FEW OR NO CLOUDS BELOW 12,000 FEET WITH NO
SIGNIFICANT WEATHER AND/OR OBSTRUCTIONS TO VISIBILITY.

NCZ001-053-055-056-065-067-271600-
WESTERN NORTH CAROLINA

CITY           SKY/WX    TMP DP  RH WIND       PRES   REMARKS
ASHEVILLE      CLOUDY    63  52  67 S12       29.89
JEFFERSON      CLOUDY    65  52  62 S6        29.89S
HICKORY        MOSUNNY   70  59  68 S14G21    29.87S
RUTHERFORDTON  CLOUDY    67  60  79 S8        29.89S
MOUNT AIRY     NOT AVBL
BOONE          NOT AVBL
$$

NCZ021-022-025-041-071-084-088-271600-
CENTRAL NORTH CAROLINA

CITY           SKY/WX    TMP DP  RH WIND       PRES   REMARKS
CHARLOTTE      PTSUNNY   73  57  57 SW9       29.91R
GREENSBORO     PTSUNNY   74  60  61 SW14      29.88F
WINSTON-SALEM  MOSUNNY   73  57  57 S6        29.88F
RALEIGH-DURHAM PTSUNNY   75  62  64 SW12      29.92F
FORT BRAGG     SUNNY     77  61  57 S9        29.91F
FAYETTEVILLE   SUNNY     78  60  53 SW10      29.92F
BURLINGTON     CLOUDY    74  61  63 S10       29.90S
LAURINBURG     SUNNY     76  60  57 SW8       29.93F
$$

NCZ011-015-027-028-043-044-047-080-103-271600-
NORTHEASTERN NORTH CAROLINA

CITY           SKY/WX    TMP DP  RH WIND       PRES   REMARKS
ROCKY MT-WILSO SUNNY     76  65  68 SW9       29.93F
GREENVILLE     SUNNY     77  63  61 W13       29.96S
WASHINGTON     MOSUNNY   78  62  58 SW10G17   29.95S
ELIZABETH CITY SUNNY     77  65  66 SW15G21   29.94R
MANTEO         MOSUNNY   76  64  67 W13       29.96R
CAPE HATTERAS  SUNNY     76  64  66 SW7       29.98R HAZE
$$

NCZ078-087-090-091-093-098-101-271600-
SOUTHEASTERN NORTH CAROLINA

CITY           SKY/WX    TMP DP  RH WIND       PRES   REMARKS
LUMBERTON      SUNNY     77  60  55 S6        29.92F
GOLDSBORO      SUNNY     77  67  72 SW14      29.93S
KINSTON        SUNNY     79  63  57 SW14      29.95
KENANSVILLE    SUNNY     77  63  61 SW10G17   29.95S
NEW BERN       PTSUNNY   77  63  61 SW12G18   29.97R
CHERRY POINT   NOT AVBL
BEAUFORT       CLOUDY    72  70  93 SW7       29.98R
JACKSONVILLE   NOT AVBL
WILMINGTON     PTSUNNY   79  62  56 W10       29.96S
$$





USA.gov is the U.S. government's official web portal to all federal, state and local government web resources and services.